contact:dominique.lefevre@mio.osupytheas.fr, maurice.libes@osupytheas.fr, didier.mallarino@osupytheas.fr
Project:EMSO http://www.emso-fr.org/EMSO-France
Depth: 2436.0 m
Title:EMSO Ligure Ouest : Data MII capteur CSTAR
DateTime,Latitude,Longitude,Instrument_Serial,Reference_Counts,Signal_Counts,Corrected_Signal_raw_counts,Calculated_Beam_c_inverse_meters,Internal_thermistor_counts
DateTime,Latitude,Longitude,Instrument_Serial,Reference_Counts,Signal_Counts,Corrected_Signal_raw_counts,Calculated_Beam_c_inverse_meters,Internal_thermistor_counts
2021-11-23T00:02:13,42.805,6.029,CST-1368DR,5078,6642,13989,0.440,551
2021-11-23T00:05:15,42.805,6.029,CST-1368DR,5078,6640,13986,0.441,551
2021-11-23T00:08:16,42.805,6.029,CST-1368DR,5078,6640,13986,0.441,551
2021-11-23T00:11:18,42.805,6.029,CST-1368DR,5078,6640,13986,0.441,551
2021-11-23T00:14:19,42.805,6.029,CST-1368DR,5078,6640,13986,0.441,551
2021-11-23T00:17:21,42.805,6.029,CST-1368DR,5078,6640,13985,0.441,551
2021-11-23T00:20:23,42.805,6.029,CST-1368DR,5078,6640,13986,0.441,551
2021-11-23T00:23:24,42.805,6.029,CST-1368DR,5078,6637,13979,0.443,551
2021-11-23T00:26:26,42.805,6.029,CST-1368DR,5078,6639,13984,0.442,551
2021-11-23T00:29:27,42.805,6.029,CST-1368DR,5078,6640,13985,0.441,551
2021-11-23T00:32:29,42.805,6.029,CST-1368DR,5078,6640,13986,0.441,551
2021-11-23T00:35:30,42.805,6.029,CST-1368DR,5078,6641,13987,0.441,551
2021-11-23T00:38:32,42.805,6.029,CST-1368DR,5078,6639,13984,0.442,551
2021-11-23T00:41:34,42.805,6.029,CST-1368DR,5078,6640,13985,0.441,551
2021-11-23T00:44:35,42.805,6.029,CST-1368DR,5078,6639,13984,0.442,551
2021-11-23T00:47:37,42.805,6.029,CST-1368DR,5078,6639,13984,0.442,551
2021-11-23T00:50:38,42.805,6.029,CST-1368DR,5078,6639,13984,0.442,551
2021-11-23T00:53:40,42.805,6.029,CST-1368DR,5078,6638,13981,0.442,551
2021-11-23T00:56:42,42.805,6.029,CST-1368DR,5078,6639,13984,0.442,551
2021-11-23T00:59:43,42.805,6.029,CST-1368DR,5078,6640,13986,0.441,551
2021-11-23T01:02:45,42.805,6.029,CST-1368DR,5078,6640,13985,0.441,551
2021-11-23T01:05:46,42.805,6.029,CST-1368DR,5078,6640,13985,0.441,551
2021-11-23T01:08:48,42.805,6.029,CST-1368DR,5078,6640,13986,0.441,551
2021-11-23T01:11:49,42.805,6.029,CST-1368DR,5078,6638,13980,0.443,551
2021-11-23T01:14:51,42.805,6.029,CST-1368DR,5078,6637,13979,0.443,551
2021-11-23T01:17:53,42.805,6.029,CST-1368DR,5078,6637,13978,0.443,551
2021-11-23T01:20:54,42.805,6.029,CST-1368DR,5078,6637,13980,0.443,550
2021-11-23T01:23:56,42.805,6.029,CST-1368DR,5078,6638,13982,0.442,551
2021-11-23T01:26:57,42.805,6.029,CST-1368DR,5078,6639,13984,0.442,551
2021-11-23T01:29:59,42.805,6.029,CST-1368DR,5078,6639,13984,0.442,551
2021-11-23T01:33:00,42.805,6.029,CST-1368DR,5078,6639,13984,0.442,551
2021-11-23T01:36:02,42.805,6.029,CST-1368DR,5078,6640,13985,0.441,551
2021-11-23T01:39:04,42.805,6.029,CST-1368DR,5078,6639,13983,0.442,551
2021-11-23T01:42:05,42.805,6.029,CST-1368DR,5078,6639,13984,0.442,551
2021-11-23T01:45:07,42.805,6.029,CST-1368DR,5078,6639,13984,0.442,550
2021-11-23T01:48:08,42.805,6.029,CST-1368DR,5078,6639,13982,0.442,551
2021-11-23T01:51:10,42.805,6.029,CST-1368DR,5078,6639,13983,0.442,551
2021-11-23T01:54:12,42.805,6.029,CST-1368DR,5078,6639,13983,0.442,551
2021-11-23T01:57:13,42.805,6.029,CST-1368DR,5077,6638,13985,0.441,551
2021-11-23T02:00:15,42.805,6.029,CST-1368DR,5078,6637,13980,0.443,551
2021-11-23T02:03:16,42.805,6.029,CST-1368DR,5078,6639,13984,0.442,551
2021-11-23T02:06:18,42.805,6.029,CST-1368DR,5077,6637,13981,0.442,551
2021-11-23T02:09:19,42.805,6.029,CST-1368DR,5077,6639,13986,0.441,551
2021-11-23T02:12:21,42.805,6.029,CST-1368DR,5078,6639,13983,0.442,551
2021-11-23T02:15:23,42.805,6.029,CST-1368DR,5077,6638,13985,0.441,551
2021-11-23T02:18:24,42.805,6.029,CST-1368DR,5077,6639,13986,0.441,551
2021-11-23T02:21:26,42.805,6.029,CST-1368DR,5077,6639,13985,0.441,551
2021-11-23T02:24:27,42.805,6.029,CST-1368DR,5077,6638,13983,0.442,551
2021-11-23T02:27:29,42.805,6.029,CST-1368DR,5077,6638,13983,0.442,551
2021-11-23T02:30:31,42.805,6.029,CST-1368DR,5077,6638,13984,0.442,551
2021-11-23T02:33:32,42.805,6.029,CST-1368DR,5077,6639,13985,0.441,551
2021-11-23T02:36:34,42.805,6.029,CST-1368DR,5077,6638,13984,0.442,551
2021-11-23T02:39:35,42.805,6.029,CST-1368DR,5077,6639,13985,0.441,551
2021-11-23T02:42:37,42.805,6.029,CST-1368DR,5077,6639,13986,0.441,551
2021-11-23T02:45:38,42.805,6.029,CST-1368DR,5077,6639,13985,0.441,551
2021-11-23T02:48:40,42.805,6.029,CST-1368DR,5077,6637,13981,0.442,551
2021-11-23T02:51:42,42.805,6.029,CST-1368DR,5077,6636,13979,0.443,551
2021-11-23T02:54:43,42.805,6.029,CST-1368DR,5077,6637,13981,0.442,551
2021-11-23T02:57:45,42.805,6.029,CST-1368DR,5077,6638,13984,0.442,551
2021-11-23T03:00:46,42.805,6.029,CST-1368DR,5077,6639,13985,0.441,551
2021-11-23T03:03:48,42.805,6.029,CST-1368DR,5077,6638,13985,0.441,551
2021-11-23T03:06:50,42.805,6.029,CST-1368DR,5077,6638,13985,0.441,551
2021-11-23T03:09:51,42.805,6.029,CST-1368DR,5077,6637,13982,0.442,551
2021-11-23T03:12:53,42.805,6.029,CST-1368DR,5077,6639,13985,0.441,551
2021-11-23T03:15:54,42.805,6.029,CST-1368DR,5077,6638,13983,0.442,551
2021-11-23T03:18:56,42.805,6.029,CST-1368DR,5077,6637,13982,0.442,551
2021-11-23T03:21:57,42.805,6.029,CST-1368DR,5077,6638,13984,0.442,551
2021-11-23T03:24:59,42.805,6.029,CST-1368DR,5077,6637,13981,0.442,551
2021-11-23T03:28:01,42.805,6.029,CST-1368DR,5077,6638,13983,0.442,551
2021-11-23T03:31:02,42.805,6.029,CST-1368DR,5077,6638,13983,0.442,551
2021-11-23T03:34:04,42.805,6.029,CST-1368DR,5077,6638,13984,0.442,551
2021-11-23T03:37:05,42.805,6.029,CST-1368DR,5077,6637,13982,0.442,551
2021-11-23T03:40:07,42.805,6.029,CST-1368DR,5077,6638,13985,0.441,551
2021-11-23T03:43:08,42.805,6.029,CST-1368DR,5077,6637,13982,0.442,551
2021-11-23T03:46:10,42.805,6.029,CST-1368DR,5077,6638,13984,0.442,551
2021-11-23T03:49:12,42.805,6.029,CST-1368DR,5077,6637,13981,0.442,551
2021-11-23T03:52:13,42.805,6.029,CST-1368DR,5077,6638,13984,0.442,551
2021-11-23T03:55:15,42.805,6.029,CST-1368DR,5077,6637,13981,0.442,551
2021-11-23T03:58:16,42.805,6.029,CST-1368DR,5077,6639,13985,0.441,551
2021-11-23T04:01:18,42.805,6.029,CST-1368DR,5077,6638,13985,0.441,551
2021-11-23T04:04:20,42.805,6.029,CST-1368DR,5077,6636,13979,0.443,551
2021-11-23T04:07:21,42.805,6.029,CST-1368DR,5077,6637,13981,0.442,551
2021-11-23T04:10:23,42.805,6.029,CST-1368DR,5077,6637,13982,0.442,551
2021-11-23T04:13:24,42.805,6.029,CST-1368DR,5077,6637,13981,0.442,551
2021-11-23T04:16:26,42.805,6.029,CST-1368DR,5077,6636,13980,0.443,551
2021-11-23T04:19:27,42.805,6.029,CST-1368DR,5077,6638,13984,0.442,551
2021-11-23T04:22:29,42.805,6.029,CST-1368DR,5077,6637,13982,0.442,551
2021-11-23T04:25:31,42.805,6.029,CST-1368DR,5077,6637,13982,0.442,551
2021-11-23T04:28:32,42.805,6.029,CST-1368DR,5077,6638,13983,0.442,551
2021-11-23T04:31:34,42.805,6.029,CST-1368DR,5077,6637,13981,0.442,551
2021-11-23T04:34:35,42.805,6.029,CST-1368DR,5077,6637,13981,0.442,551
2021-11-23T04:37:37,42.805,6.029,CST-1368DR,5077,6637,13981,0.442,551
2021-11-23T04:40:39,42.805,6.029,CST-1368DR,5077,6637,13981,0.442,551
2021-11-23T04:43:40,42.805,6.029,CST-1368DR,5077,6637,13981,0.442,551
2021-11-23T04:46:42,42.805,6.029,CST-1368DR,5077,6637,13981,0.442,551
2021-11-23T04:49:43,42.805,6.029,CST-1368DR,5076,6635,13980,0.443,551
2021-11-23T04:52:45,42.805,6.029,CST-1368DR,5077,6637,13981,0.442,551
2021-11-23T04:55:46,42.805,6.029,CST-1368DR,5076,6635,13981,0.442,551
2021-11-23T04:58:48,42.805,6.029,CST-1368DR,5076,6637,13984,0.442,551
2021-11-23T05:01:50,42.805,6.029,CST-1368DR,5076,6637,13984,0.442,551
2021-11-23T05:04:51,42.805,6.029,CST-1368DR,5076,6637,13985,0.441,551
2021-11-23T05:07:53,42.805,6.029,CST-1368DR,5076,6637,13985,0.441,551
2021-11-23T05:10:54,42.805,6.029,CST-1368DR,5076,6637,13985,0.441,551
2021-11-23T05:13:56,42.805,6.029,CST-1368DR,5076,6636,13982,0.442,551
2021-11-23T05:16:57,42.805,6.029,CST-1368DR,5076,6636,13982,0.442,551
2021-11-23T05:19:59,42.805,6.029,CST-1368DR,5076,6635,13981,0.442,551
2021-11-23T05:23:01,42.805,6.029,CST-1368DR,5076,6636,13983,0.442,551
2021-11-23T05:26:02,42.805,6.029,CST-1368DR,5076,6636,13981,0.442,551
2021-11-23T05:29:04,42.805,6.029,CST-1368DR,5076,6636,13982,0.442,551
2021-11-23T05:32:05,42.805,6.029,CST-1368DR,5076,6637,13985,0.441,551
2021-11-23T05:35:07,42.805,6.029,CST-1368DR,5076,6636,13982,0.442,551
2021-11-23T05:38:09,42.805,6.029,CST-1368DR,5076,6637,13984,0.442,551
2021-11-23T05:41:10,42.805,6.029,CST-1368DR,5076,6636,13982,0.442,551
2021-11-23T05:44:12,42.805,6.029,CST-1368DR,5076,6636,13981,0.442,551
2021-11-23T05:47:13,42.805,6.029,CST-1368DR,5076,6636,13981,0.442,551
2021-11-23T05:50:15,42.805,6.029,CST-1368DR,5076,6636,13982,0.442,551
2021-11-23T05:53:16,42.805,6.029,CST-1368DR,5076,6637,13984,0.442,551
2021-11-23T05:56:18,42.805,6.029,CST-1368DR,5076,6636,13982,0.442,551
2021-11-23T05:59:20,42.805,6.029,CST-1368DR,5076,6636,13983,0.442,551
2021-11-23T06:02:21,42.805,6.029,CST-1368DR,5076,6636,13982,0.442,551
2021-11-23T06:05:23,42.805,6.029,CST-1368DR,5076,6634,13979,0.443,551
2021-11-23T06:08:24,42.805,6.029,CST-1368DR,5076,6636,13982,0.442,551
2021-11-23T06:11:26,42.805,6.029,CST-1368DR,5076,6634,13978,0.443,551
2021-11-23T06:14:28,42.805,6.029,CST-1368DR,5076,6636,13982,0.442,551
2021-11-23T06:17:29,42.805,6.029,CST-1368DR,5076,6636,13982,0.442,551
2021-11-23T06:20:31,42.805,6.029,CST-1368DR,5076,6635,13981,0.442,551
2021-11-23T06:23:32,42.805,6.029,CST-1368DR,5076,6635,13981,0.442,551
2021-11-23T06:26:34,42.805,6.029,CST-1368DR,5076,6634,13978,0.443,551
2021-11-23T06:29:35,42.805,6.029,CST-1368DR,5076,6634,13977,0.444,551
2021-11-23T06:32:37,42.805,6.029,CST-1368DR,5076,6635,13981,0.442,551
2021-11-23T06:35:39,42.805,6.029,CST-1368DR,5076,6634,13979,0.443,551
2021-11-23T06:38:40,42.805,6.029,CST-1368DR,5076,6634,13978,0.443,551
2021-11-23T06:41:42,42.805,6.029,CST-1368DR,5076,6636,13981,0.442,551
2021-11-23T06:44:43,42.805,6.029,CST-1368DR,5076,6635,13981,0.442,551
2021-11-23T06:47:45,42.805,6.029,CST-1368DR,5076,6635,13981,0.442,551
2021-11-23T06:50:46,42.805,6.029,CST-1368DR,5076,6635,13980,0.443,551
2021-11-23T06:53:48,42.805,6.029,CST-1368DR,5076,6635,13980,0.443,551
2021-11-23T06:56:50,42.805,6.029,CST-1368DR,5076,6634,13978,0.443,551
2021-11-23T06:59:51,42.805,6.029,CST-1368DR,5076,6635,13981,0.442,551
2021-11-23T07:02:53,42.805,6.029,CST-1368DR,5076,6633,13975,0.444,551
2021-11-23T07:05:54,42.805,6.029,CST-1368DR,5076,6634,13979,0.443,551
2021-11-23T07:08:56,42.805,6.029,CST-1368DR,5076,6634,13978,0.443,551
2021-11-23T07:11:58,42.805,6.029,CST-1368DR,5076,6636,13981,0.442,551
2021-11-23T07:14:59,42.805,6.029,CST-1368DR,5076,6634,13978,0.443,550
2021-11-23T07:18:01,42.805,6.029,CST-1368DR,5076,6635,13980,0.443,551
2021-11-23T07:21:02,42.805,6.029,CST-1368DR,5076,6635,13980,0.443,551
2021-11-23T07:24:04,42.805,6.029,CST-1368DR,5076,6635,13981,0.442,551
2021-11-23T07:27:05,42.805,6.029,CST-1368DR,5076,6635,13981,0.442,551
2021-11-23T07:30:07,42.805,6.029,CST-1368DR,5076,6635,13980,0.443,551
2021-11-23T07:33:09,42.805,6.029,CST-1368DR,5076,6635,13980,0.443,551
2021-11-23T07:36:10,42.805,6.029,CST-1368DR,5076,6633,13975,0.444,551
2021-11-23T07:39:12,42.805,6.029,CST-1368DR,5076,6633,13976,0.444,551
2021-11-23T07:42:13,42.805,6.029,CST-1368DR,5076,6635,13981,0.442,551
2021-11-23T07:45:15,42.805,6.029,CST-1368DR,5075,6634,13981,0.442,551
2021-11-23T07:48:17,42.805,6.029,CST-1368DR,5076,6635,13980,0.443,551
2021-11-23T07:51:18,42.805,6.029,CST-1368DR,5076,6635,13980,0.443,551
2021-11-23T07:54:20,42.805,6.029,CST-1368DR,5076,6634,13978,0.443,551
2021-11-23T07:57:21,42.805,6.029,CST-1368DR,5076,6634,13979,0.443,551
2021-11-23T08:00:23,42.805,6.029,CST-1368DR,5076,6634,13979,0.443,551
2021-11-23T08:03:24,42.805,6.029,CST-1368DR,5076,6635,13981,0.442,551
2021-11-23T08:06:26,42.805,6.029,CST-1368DR,5075,6634,13980,0.443,551
2021-11-23T08:09:28,42.805,6.029,CST-1368DR,5075,6633,13979,0.443,551
2021-11-23T08:12:29,42.805,6.029,CST-1368DR,5076,6632,13973,0.445,551
2021-11-23T08:15:31,42.805,6.029,CST-1368DR,5075,6634,13981,0.442,551
2021-11-23T08:18:32,42.805,6.029,CST-1368DR,5076,6634,13978,0.443,551
2021-11-23T08:21:34,42.805,6.029,CST-1368DR,5075,6634,13980,0.443,551
2021-11-23T08:24:35,42.805,6.029,CST-1368DR,5075,6633,13979,0.443,550
2021-11-23T08:27:37,42.805,6.029,CST-1368DR,5075,6635,13982,0.442,551
2021-11-23T08:30:39,42.805,6.029,CST-1368DR,5075,6634,13980,0.443,551
2021-11-23T08:33:40,42.805,6.029,CST-1368DR,5075,6635,13983,0.442,551
2021-11-23T08:36:42,42.805,6.029,CST-1368DR,5075,6635,13983,0.442,551
2021-11-23T08:39:43,42.805,6.029,CST-1368DR,5075,6635,13982,0.442,551
2021-11-23T08:42:45,42.805,6.029,CST-1368DR,5075,6635,13983,0.442,551
2021-11-23T08:45:47,42.805,6.029,CST-1368DR,5075,6630,13971,0.445,551
2021-11-23T08:48:48,42.805,6.029,CST-1368DR,5075,6633,13978,0.443,551
2021-11-23T08:51:50,42.805,6.029,CST-1368DR,5075,6632,13976,0.444,551
2021-11-23T08:54:51,42.805,6.029,CST-1368DR,5075,6630,13972,0.445,551
2021-11-23T08:57:53,42.805,6.029,CST-1368DR,5075,6633,13979,0.443,551
2021-11-23T09:00:54,42.805,6.029,CST-1368DR,5075,6634,13980,0.443,551
2021-11-23T09:03:56,42.805,6.029,CST-1368DR,5075,6634,13981,0.442,551
2021-11-23T09:06:58,42.805,6.029,CST-1368DR,5075,6634,13980,0.443,551
2021-11-23T09:09:59,42.805,6.029,CST-1368DR,5075,6633,13979,0.443,551
2021-11-23T09:13:01,42.805,6.029,CST-1368DR,5075,6633,13979,0.443,551
2021-11-23T09:16:02,42.805,6.029,CST-1368DR,5075,6633,13979,0.443,551
2021-11-23T09:19:04,42.805,6.029,CST-1368DR,5075,6634,13980,0.443,551
2021-11-23T09:22:05,42.805,6.029,CST-1368DR,5075,6633,13979,0.443,551
2021-11-23T09:25:07,42.805,6.029,CST-1368DR,5075,6633,13979,0.443,551
2021-11-23T09:28:09,42.805,6.029,CST-1368DR,5075,6634,13980,0.443,551
2021-11-23T09:31:10,42.805,6.029,CST-1368DR,5075,6633,13979,0.443,551
2021-11-23T09:34:12,42.805,6.029,CST-1368DR,5075,6634,13981,0.442,551
2021-11-23T09:37:13,42.805,6.029,CST-1368DR,5075,6634,13981,0.442,551
2021-11-23T09:40:15,42.805,6.029,CST-1368DR,5075,6633,13979,0.443,551
2021-11-23T09:43:17,42.805,6.029,CST-1368DR,5075,6633,13978,0.443,551
2021-11-23T09:46:18,42.805,6.029,CST-1368DR,5075,6634,13981,0.442,551
2021-11-23T09:49:20,42.805,6.029,CST-1368DR,5075,6634,13981,0.442,551
2021-11-23T09:52:21,42.805,6.029,CST-1368DR,5075,6634,13980,0.443,551
2021-11-23T09:55:23,42.805,6.029,CST-1368DR,5075,6634,13980,0.443,551
2021-11-23T09:58:24,42.805,6.029,CST-1368DR,5075,6634,13980,0.443,551
2021-11-23T10:01:26,42.805,6.029,CST-1368DR,5075,6634,13981,0.442,551
2021-11-23T10:04:28,42.805,6.029,CST-1368DR,5075,6635,13982,0.442,551
2021-11-23T10:07:29,42.805,6.029,CST-1368DR,5075,6634,13980,0.443,551
2021-11-23T10:10:31,42.805,6.029,CST-1368DR,5075,6634,13980,0.443,551
2021-11-23T10:13:32,42.805,6.029,CST-1368DR,5075,6635,13982,0.442,551
2021-11-23T10:16:34,42.805,6.029,CST-1368DR,5075,6634,13981,0.442,551
2021-11-23T10:19:35,42.805,6.029,CST-1368DR,5075,6633,13979,0.443,551
2021-11-23T10:22:37,42.805,6.029,CST-1368DR,5075,6634,13981,0.442,551
2021-11-23T10:25:39,42.805,6.029,CST-1368DR,5075,6634,13981,0.442,551
2021-11-23T10:28:40,42.805,6.029,CST-1368DR,5075,6623,13958,0.449,551
2021-11-23T10:31:42,42.805,6.029,CST-1368DR,5075,6634,13981,0.442,551
2021-11-23T10:34:43,42.805,6.029,CST-1368DR,5075,6634,13981,0.442,551
2021-11-23T10:37:45,42.805,6.029,CST-1368DR,5075,6633,13978,0.443,551
2021-11-23T10:40:47,42.805,6.029,CST-1368DR,5075,6633,13979,0.443,551
2021-11-23T10:43:48,42.805,6.029,CST-1368DR,5075,6633,13979,0.443,551
2021-11-23T10:46:50,42.805,6.029,CST-1368DR,5075,6634,13981,0.442,551
2021-11-23T10:49:51,42.805,6.029,CST-1368DR,5075,6633,13978,0.443,551
2021-11-23T10:52:53,42.805,6.029,CST-1368DR,5075,6618,13946,0.452,551
2021-11-23T10:55:54,42.805,6.029,CST-1368DR,5075,6632,13977,0.444,551
2021-11-23T10:58:56,42.805,6.029,CST-1368DR,5075,6634,13980,0.443,551
2021-11-23T11:01:58,42.805,6.029,CST-1368DR,5075,6633,13978,0.443,551
2021-11-23T11:04:59,42.805,6.029,CST-1368DR,5074,6633,13980,0.443,551
2021-11-23T11:08:01,42.805,6.029,CST-1368DR,5074,6633,13980,0.443,550
2021-11-23T11:11:02,42.805,6.029,CST-1368DR,5074,6633,13982,0.442,551
2021-11-23T11:14:04,42.805,6.029,CST-1368DR,5074,6633,13982,0.442,551
2021-11-23T11:17:05,42.805,6.029,CST-1368DR,5075,6635,13982,0.442,551
2021-11-23T11:20:07,42.805,6.029,CST-1368DR,5075,6633,13979,0.443,551
2021-11-23T11:23:09,42.805,6.029,CST-1368DR,5074,6631,13976,0.444,551
2021-11-23T11:26:10,42.805,6.029,CST-1368DR,5074,6632,13978,0.443,551
2021-11-23T11:29:12,42.805,6.029,CST-1368DR,5074,6630,13975,0.444,551
2021-11-23T11:32:13,42.805,6.029,CST-1368DR,5074,6632,13978,0.443,550
2021-11-23T11:35:15,42.805,6.029,CST-1368DR,5074,6629,13973,0.445,551
2021-11-23T11:38:17,42.805,6.029,CST-1368DR,5074,6629,13973,0.445,551
2021-11-23T11:41:18,42.805,6.029,CST-1368DR,5074,6632,13979,0.443,551
2021-11-23T11:44:20,42.805,6.029,CST-1368DR,5074,6629,13972,0.445,551
2021-11-23T11:47:21,42.805,6.029,CST-1368DR,5074,6633,13980,0.443,551
2021-11-23T11:50:23,42.805,6.029,CST-1368DR,5074,6633,13981,0.442,551
2021-11-23T11:53:24,42.805,6.029,CST-1368DR,5074,6635,13985,0.441,551
2021-11-23T11:56:26,42.805,6.029,CST-1368DR,5074,6633,13980,0.443,551
2021-11-23T11:59:28,42.805,6.029,CST-1368DR,5074,6633,13981,0.442,551
2021-11-23T12:02:29,42.805,6.029,CST-1368DR,5074,6633,13981,0.442,551
2021-11-23T12:05:31,42.805,6.029,CST-1368DR,5074,6633,13981,0.442,551
2021-11-23T12:08:32,42.805,6.029,CST-1368DR,5074,6632,13980,0.443,551
2021-11-23T12:11:34,42.805,6.029,CST-1368DR,5074,6633,13980,0.443,551
2021-11-23T12:14:36,42.805,6.029,CST-1368DR,5074,6633,13982,0.442,551
2021-11-23T12:17:37,42.805,6.029,CST-1368DR,5074,6634,13982,0.442,551
2021-11-23T12:20:39,42.805,6.029,CST-1368DR,5074,6632,13979,0.443,551
2021-11-23T12:23:40,42.805,6.029,CST-1368DR,5074,6633,13980,0.443,551
2021-11-23T12:26:42,42.805,6.029,CST-1368DR,5074,6633,13981,0.442,551
2021-11-23T12:29:43,42.805,6.029,CST-1368DR,5074,6632,13980,0.443,551
2021-11-23T12:32:45,42.805,6.029,CST-1368DR,5074,6633,13981,0.442,551
2021-11-23T12:35:47,42.805,6.029,CST-1368DR,5074,6632,13978,0.443,551
2021-11-23T12:38:48,42.805,6.029,CST-1368DR,5074,6630,13975,0.444,551
2021-11-23T12:41:50,42.805,6.029,CST-1368DR,5074,6629,13972,0.445,551
2021-11-23T12:44:51,42.805,6.029,CST-1368DR,5074,6632,13979,0.443,551
2021-11-23T12:47:53,42.805,6.029,CST-1368DR,5074,6632,13979,0.443,551
2021-11-23T12:50:55,42.805,6.029,CST-1368DR,5074,6632,13979,0.443,551
2021-11-23T12:53:56,42.805,6.029,CST-1368DR,5074,6632,13979,0.443,551
2021-11-23T12:56:58,42.805,6.029,CST-1368DR,5074,6634,13982,0.442,551
2021-11-23T12:59:59,42.805,6.029,CST-1368DR,5074,6632,13979,0.443,551
2021-11-23T13:03:01,42.805,6.029,CST-1368DR,5074,6633,13980,0.443,551
2021-11-23T13:06:02,42.805,6.029,CST-1368DR,5074,6632,13980,0.443,551
2021-11-23T13:09:04,42.805,6.029,CST-1368DR,5074,6633,13981,0.442,551
2021-11-23T13:12:06,42.805,6.029,CST-1368DR,5074,6632,13979,0.443,551
2021-11-23T13:15:07,42.805,6.029,CST-1368DR,5074,6632,13980,0.443,551
2021-11-23T13:18:09,42.805,6.029,CST-1368DR,5074,6633,13981,0.442,551
2021-11-23T13:21:10,42.805,6.029,CST-1368DR,5074,6633,13982,0.442,551
2021-11-23T13:24:12,42.805,6.029,CST-1368DR,5074,6632,13979,0.443,551
2021-11-23T13:27:13,42.805,6.029,CST-1368DR,5074,6632,13978,0.443,551
2021-11-23T13:30:15,42.805,6.029,CST-1368DR,5074,6630,13975,0.444,551
2021-11-23T13:33:17,42.805,6.029,CST-1368DR,5074,6632,13980,0.443,551
2021-11-23T13:36:18,42.805,6.029,CST-1368DR,5074,6633,13981,0.442,551
2021-11-23T13:39:20,42.805,6.029,CST-1368DR,5074,6631,13976,0.444,551
2021-11-23T13:42:21,42.805,6.029,CST-1368DR,5074,6632,13979,0.443,551
2021-11-23T13:45:23,42.805,6.029,CST-1368DR,5074,6632,13979,0.443,551
2021-11-23T13:48:25,42.805,6.029,CST-1368DR,5074,6632,13980,0.443,551
2021-11-23T13:51:26,42.805,6.029,CST-1368DR,5074,6633,13980,0.443,551
2021-11-23T13:54:28,42.805,6.029,CST-1368DR,5074,6633,13981,0.442,551
2021-11-23T13:57:29,42.805,6.029,CST-1368DR,5074,6633,13981,0.442,551
2021-11-23T14:00:31,42.805,6.029,CST-1368DR,5074,6630,13976,0.444,551
2021-11-23T14:03:32,42.805,6.029,CST-1368DR,5074,6632,13980,0.443,551
2021-11-23T14:06:34,42.805,6.029,CST-1368DR,5074,6629,13973,0.445,551
2021-11-23T14:09:36,42.805,6.029,CST-1368DR,5074,6633,13981,0.442,551
2021-11-23T14:12:37,42.805,6.029,CST-1368DR,5074,6633,13981,0.442,551
2021-11-23T14:15:39,42.805,6.029,CST-1368DR,5074,6632,13980,0.443,551
2021-11-23T14:18:40,42.805,6.029,CST-1368DR,5074,6629,13972,0.445,551
2021-11-23T14:21:42,42.805,6.029,CST-1368DR,5074,6626,13967,0.446,551
2021-11-23T14:24:44,42.805,6.029,CST-1368DR,5074,6630,13975,0.444,551
2021-11-23T14:27:45,42.805,6.029,CST-1368DR,5074,6632,13979,0.443,551
2021-11-23T14:30:47,42.805,6.029,CST-1368DR,5074,6631,13976,0.444,551
2021-11-23T14:33:48,42.805,6.029,CST-1368DR,5074,6633,13981,0.442,551
2021-11-23T14:36:50,42.805,6.029,CST-1368DR,5074,6632,13979,0.443,551
2021-11-23T14:39:51,42.805,6.029,CST-1368DR,5074,6632,13980,0.443,551
2021-11-23T14:42:53,42.805,6.029,CST-1368DR,5074,6632,13979,0.443,551
2021-11-23T14:45:55,42.805,6.029,CST-1368DR,5074,6632,13980,0.443,551
2021-11-23T14:48:56,42.805,6.029,CST-1368DR,5074,6633,13980,0.443,551
2021-11-23T14:51:58,42.805,6.029,CST-1368DR,5074,6630,13975,0.444,551
2021-11-23T14:54:59,42.805,6.029,CST-1368DR,5074,6633,13981,0.442,551
2021-11-23T14:58:01,42.805,6.029,CST-1368DR,5074,6631,13977,0.444,551
2021-11-23T15:01:02,42.805,6.029,CST-1368DR,5074,6633,13980,0.443,551
2021-11-23T15:04:04,42.805,6.029,CST-1368DR,5074,6631,13977,0.444,551
2021-11-23T15:07:06,42.805,6.029,CST-1368DR,5074,6633,13981,0.442,551
2021-11-23T15:10:07,42.805,6.029,CST-1368DR,5074,6633,13981,0.442,551
2021-11-23T15:13:09,42.805,6.029,CST-1368DR,5074,6633,13980,0.443,551
2021-11-23T15:16:10,42.805,6.029,CST-1368DR,5074,6633,13980,0.443,551
2021-11-23T15:19:12,42.805,6.029,CST-1368DR,5074,6633,13981,0.442,551
2021-11-23T15:22:14,42.805,6.029,CST-1368DR,5074,6631,13977,0.444,551
2021-11-23T15:25:15,42.805,6.029,CST-1368DR,5074,6632,13980,0.443,551
2021-11-23T15:28:17,42.805,6.029,CST-1368DR,5074,6632,13980,0.443,551
2021-11-23T15:31:18,42.805,6.029,CST-1368DR,5074,6633,13981,0.442,551
2021-11-23T15:34:20,42.805,6.029,CST-1368DR,5074,6632,13979,0.443,551
2021-11-23T15:37:21,42.805,6.029,CST-1368DR,5074,6632,13979,0.443,551
2021-11-23T15:40:23,42.805,6.029,CST-1368DR,5074,6632,13978,0.443,551
2021-11-23T15:43:25,42.805,6.029,CST-1368DR,5074,6631,13977,0.444,551
2021-11-23T15:46:26,42.805,6.029,CST-1368DR,5074,6632,13980,0.443,551
2021-11-23T15:49:28,42.805,6.029,CST-1368DR,5074,6631,13976,0.444,551
2021-11-23T15:52:29,42.805,6.029,CST-1368DR,5074,6632,13979,0.443,551
2021-11-23T15:55:31,42.805,6.029,CST-1368DR,5074,6631,13977,0.444,551
2021-11-23T15:58:33,42.805,6.029,CST-1368DR,5074,6632,13978,0.443,551
2021-11-23T16:01:34,42.805,6.029,CST-1368DR,5074,6631,13977,0.444,551
2021-11-23T16:04:36,42.805,6.029,CST-1368DR,5074,6630,13976,0.444,551
2021-11-23T16:07:37,42.805,6.029,CST-1368DR,5074,6631,13976,0.444,551
2021-11-23T16:10:39,42.805,6.029,CST-1368DR,5074,6630,13976,0.444,551
2021-11-23T16:13:40,42.805,6.029,CST-1368DR,5074,6632,13979,0.443,551
2021-11-23T16:16:42,42.805,6.029,CST-1368DR,5074,6632,13979,0.443,551
2021-11-23T16:19:44,42.805,6.029,CST-1368DR,5074,6632,13979,0.443,551
2021-11-23T16:22:45,42.805,6.029,CST-1368DR,5074,6632,13978,0.443,551
2021-11-23T16:25:47,42.805,6.029,CST-1368DR,5074,6631,13977,0.444,551
2021-11-23T16:28:48,42.805,6.029,CST-1368DR,5074,6632,13978,0.443,551
2021-11-23T16:31:50,42.805,6.029,CST-1368DR,5074,6632,13980,0.443,551
2021-11-23T16:34:52,42.805,6.029,CST-1368DR,5074,6632,13979,0.443,551
2021-11-23T16:37:53,42.805,6.029,CST-1368DR,5074,6632,13978,0.443,551
2021-11-23T16:40:55,42.805,6.029,CST-1368DR,5074,6632,13979,0.443,551
2021-11-23T16:43:56,42.805,6.029,CST-1368DR,5074,6632,13979,0.443,551
2021-11-23T16:46:58,42.805,6.029,CST-1368DR,5074,6631,13976,0.444,551
2021-11-23T16:49:59,42.805,6.029,CST-1368DR,5074,6631,13977,0.444,551
2021-11-23T16:53:01,42.805,6.029,CST-1368DR,5073,6629,13976,0.444,551